Overview Statistics Trail Chart Weather Telemetry Raw packets
 

This is the latest recevied weather packets stored in our database for station/object N6GPM. If no packets are shown the sender has not sent any weather packets the latest 10 day(s).

<< 105 106 107 108 109 110 111 >>
Time Temp. Humidity Pressure Rain* Wind** Luminosity Snow
1787883724 31.67° C 39% 1015.4 hPa 0 mm - 4 W/m² -
1787883421 31.67° C 38% 1015.2 hPa 0 mm - 7 W/m² -
1787883118 32.22° C 38% 1015.2 hPa 0 mm - 12 W/m² -
1787882814 32.78° C 38% 1015.5 hPa 0 mm - 17 W/m² -
1787882511 32.78° C 37% 1015.2 hPa 0 mm - 25 W/m² -
1787882206 32.78° C 37% 1015.3 hPa 0 mm - 34 W/m² -
1787881601 33.89° C 35% 1015 hPa 0 mm - 56 W/m² -
1787881298 33.89° C 34% 1015.2 hPa 0 mm - 61 W/m² -
1787880998 33.89° C 34% 1015.3 hPa 0 mm - 68 W/m² -
1787880692 33.89° C 33% 1015.2 hPa 0 mm - 72 W/m² -
1787880391 33.89° C 33% 1015.3 hPa 0 mm - 70 W/m² -
1787880086 33.89° C 33% 1015.2 hPa 0 mm - 74 W/m² -
1787879780 33.89° C 32% 1015.3 hPa 0 mm - 79 W/m² -
1787879476 34.44° C 32% 1015.2 hPa 0 mm - 88 W/m² -
1787879171 34.44° C 31% 1015 hPa 0 mm - 94 W/m² -
1787878869 34.44° C 31% 1014.9 hPa 0 mm - 134 W/m² -
1787878567 35° C 31% 1015.2 hPa 0 mm - 158 W/m² -
1787878262 35° C 30% 1015 hPa 0 mm - 180 W/m² -
1787877958 35° C 30% 1015.3 hPa 0 mm - 199 W/m² -
1787877653 35° C 30% 1015.3 hPa 0 mm - 216 W/m² -
1787877349 35° C 30% 1015.2 hPa 0 mm - 244 W/m² -
1787877044 35° C 28% 1015.3 hPa 0 mm - 262 W/m² -
1787876739 35.56° C 27% 1015.2 hPa 0 mm - 314 W/m² -
1787876434 35.56° C 29% 1015.2 hPa 0 mm - 385 W/m² -
1787876133 34.44° C 30% 1015.4 hPa 0 mm - 450 W/m² -

* Rain latest hour (hover to see other rain measurements)
** Current wind speed in m/s (hover to see current wind gust speed)